This demonstration page uses our WeatherBlox Daily Observations layout. Learn more.

Left ArrowRight Arrow

38.89511, -77.03637

Hourly Observations for December 24, 2020

Temp ( °F °C ) Dew Point ( °F °C ) Humidity (%) Winds ( mph kmh ) Pressure ( in mb ) Visibility ( mi km ) Precip ( " mm )
12:52 am 00:52 Cloudy 44 6.7 36 2.2 73 73 S 6 9 30.21 1023 10 16 0.00 0.00
1:52 am 01:52 Cloudy 44 6.7 37 2.8 76 76 E 3 6 30.19 1022 10 16 0.00 0.00
2:52 am 02:52 Cloudy 44 6.7 38 3.3 79 79 ENE 3 6 30.17 1022 10 16 0.00 0.00
3:52 am 03:52 Cloudy 43 6.1 38 3.3 82 82 NE 6 9 30.13 1020 10 16 0.00 0.00
4:52 am 04:52 Cloudy 43 6.1 38 3.3 82 82 ENE 8 13 30.10 1019 10 16 0.00 0.00
5:52 am 05:52 Cloudy 44 6.7 39 3.9 83 83 ENE 8 13 30.07 1018 10 16 0.00 0.00
6:52 am 06:52 Cloudy 45 7.2 40 4.4 83 83 N 5 7 30.05 1018 10 16 0.00 0.00
7:52 am 07:52 Cloudy with Light Rain 48 8.9 42 5.6 80 80 Calm 30.03 1017 10 16 0.00 0.00
8:52 am 08:52 Cloudy with Light Rain 49 9.4 44 6.7 83 83 Calm 30.01 1016 10 16 0.00 0.00
9:52 am 09:52 Cloudy 57 13.9 49 9.4 74 74 S 13 20 29.98 1015 10 16 0.00 0.00
10:52 am 10:52 Cloudy with Light Rain 59 15 51 10.6 75 75 S 20 31 29.95 1014 7 11 0.00 0.00
11:52 am 11:52 Cloudy with Light Rain 56 13.3 51 10.6 84 84 S 12 19 29.90 1013 10 16 0.04 1.02
12:52 pm 12:52 Cloudy 60 15.6 53 11.7 78 78 SSE 10 17 29.85 1011 10 16 0.00 0.00
1:52 pm 13:52 Cloudy with Light Rain 60 15.6 55 12.8 84 84 SSE 10 17 29.80 1009 10 16 0.03 0.76
2:52 pm 14:52 Cloudy with Light Rain 60 15.6 55 12.8 84 84 SSE 13 20 29.77 1008 7 11 0.01 0.25
3:52 pm 15:52 Cloudy with Light Rain 59 15 55 12.8 87 87 SE 14 22 29.71 1006 4 6 0.12 3.05
4:11 pm 16:11 Cloudy with Light Rain 59 15 55 12.8 87 87 SE 16 26 29.70 1006 8 13 0.01 0.25
4:44 pm 16:44 Cloudy with Rain 59 15 55 12.8 87 87 SW 13 20 29.71 1006 5 8 0.03 0.76
4:50 pm 16:50 Cloudy with Heavy Rain 61 16 55 13 83 83 WSW 22 35 29.71 1006 3 4 0.05 1.27
4:52 pm 16:52 Cloudy with Heavy Rain 60 15.6 57 13.9 90 90 SW 21 33 29.70 1006 2 2 0.08 2.03
4:54 pm 16:54 Cloudy with Heavy Rain 60 15.6 57 13.9 90 90 SSW 16 26 29.71 1006 1 2 0.08 2.03
4:56 pm 16:56 Cloudy with Heavy Rain 60 15.6 57 13.9 90 90 SSW 16 26 29.72 1006 1 2 0.13 3.30
5:00 pm 17:00 Cloudy with Heavy Rain 60 15.6 57 13.9 90 90 SW 13 20 29.71 1006 2 2 0.16 4.06
5:03 pm 17:03 Cloudy with Heavy Rain 60 15.6 57 13.9 90 90 SSW 9 15 29.72 1006 3 4 0.18 4.57
5:06 pm 17:06 Cloudy with Heavy Rain 60 15.6 57 13.9 90 90 SSW 10 17 29.72 1006 3 5 0.20 5.08
5:15 pm 17:15 Cloudy with Heavy Rain 60 15.6 57 13.9 90 90 S 10 17 29.72 1006 3 4 0.24 6.10
5:24 pm 17:24 Cloudy with Light Rain 56 13.3 55 12.8 97 97 S 10 17 29.71 1006 4 6 0.31 7.87
5:41 pm 17:41 Cloudy with Light Rain 56 13.3 55 12.8 97 97 SSE 8 13 29.69 1005 7 11 0.34 8.64
5:52 pm 17:52 Mostly Cloudy 57 13.9 55 12.8 93 93 S 9 15 29.69 1005 10 16 0.34 8.64
6:06 pm 18:06 Mostly Cloudy 57 13.9 55 12.8 93 93 S 7 11 29.69 1005 10 16 0.00 0.00
6:47 pm 18:47 Cloudy with Light Rain 57 14 55 13 94 94 SSE 9 15 29.64 1004 10 16 0.00 0.00
6:52 pm 18:52 Cloudy with Rain 59 15 57 13.9 93 93 S 10 17 29.64 1004 6 10 0.00 0.00
7:00 pm 19:00 Cloudy with Rain 59 15 57 13.9 93 93 SSE 13 20 29.64 1004 4 6 0.04 1.02
7:32 pm 19:32 Cloudy with Light Rain 58 14.4 57 13.9 97 97 S 7 11 29.60 1002 8 13 0.11 2.79
7:37 pm 19:37 Cloudy with Light Rain 59 15 57 13.9 93 93 S 7 11 29.59 1002 8 13 0.12 3.05
7:52 pm 19:52 Cloudy with Light Rain 59 15 57 13.9 93 93 SSE 10 17 29.58 1002 10 16 0.12 3.05
8:21 pm 20:21 Cloudy with Rain 59 15 57 13.9 93 93 S 12 19 29.57 1001 4 6 0.06 1.52
8:52 pm 20:52 Cloudy with Heavy Rain 59 15 58 14.4 96 96 SE 14 22 29.54 1000 2 3 0.22 5.59
8:54 pm 20:54 Cloudy with Heavy Rain 60 15.6 58 14.4 93 93 SSE 15 24 29.54 1000 2 3 0.02 0.51
8:56 pm 20:56 Cloudy with Rain 60 15.6 58 14.4 93 93 SSE 15 24 29.53 1000 2 3 0.03 0.76
9:00 pm 21:00 Cloudy with Light Rain 60 15.6 58 14.4 93 93 SE 15 24 29.52 1000 3 5 0.03 0.76
9:07 pm 21:07 Cloudy with Light Rain 60 15.6 58 14.4 93 93 SE 16 26 29.51 999 5 8 0.04 1.02
9:13 pm 21:13 Cloudy with Light Rain 60 15.6 58 14.4 93 93 SE 18 30 29.51 999 9 14 0.04 1.02
9:52 pm 21:52 Cloudy 60 15.6 58 14.4 93 93 SSE 17 28 29.47 998 10 16 0.04 1.02
9:54 pm 21:54 Cloudy 61 16.1 58 14.4 90 90 SSE 15 24 29.47 998 10 16 0.00 0.00
10:36 pm 22:36 Cloudy with Light Rain 59 15 57 13.9 93 93 S 10 17 29.44 997 10 16 0.00 0.00
10:52 pm 22:52 Cloudy with Light Rain 61 16.1 58 14.4 90 90 SSE 14 22 29.41 996 8 13 0.00 0.00
11:16 pm 23:16 Cloudy with Light Rain 61 16.1 58 14.4 90 90 WSW 25 41 29.42 996 2 2 0.02 0.51
11:22 pm 23:22 Cloudy with Heavy Rain 58 14.4 56 13.3 93 93 WSW 13 20 29.42 996 4 6 0.19 4.83
11:31 pm 23:31 Cloudy with Rain 58 14.4 55 12.8 90 90 SW 12 19 29.42 996 4 6 0.23 5.84
11:52 pm 23:52 Cloudy with Rain 57 13.9 55 12.8 93 93 SW 10 17 29.43 997 5 8 0.29 7.37

Powered by AerisWeather